Location: Gand�
(15.0971°N, 12.6564°W)
Time: 14:47:43
(UTC+00:00)

SAR-Lupe-4 - Pass Details

Date: 07 August 2020
Orbit: 481 x 485 km, 98.2° (Epoch: 16 September)

Event Time Altitude Azimuth Distance (km) Brightness Sun altitude
Rises 05:38:16 0° 173° (S) 2,530 7.1 -13.7°
Reaches altitude 10° 05:40:20 10° 176° (S) 1,651 6.1 -13.2°
Maximum altitude 05:43:51 65° 258° (WSW) 530 3.4 -12.4°
Drops below altitude 10° 05:47:22 10° 341° (NNW) 1,652 6.3 -11.7°
Sets 05:49:27 0° 344° (NNW) 2,532 7.3 -11.2°
